星链-35070(STARLINK-35070)

导读

STARLINK-35070是美国SpaceX星链星座的一颗卫星,于2025年9月21日发射升空。星链计划旨在构建覆盖全球的低轨卫星互联网星座,为全球偏远地区、海洋等网络覆盖薄弱区域提供高速宽带服务。该卫星加入星链组网后,将进一步扩充星座规模,提升星座的全球服务能力与通信覆盖稳定性。

基本信息
目录编号:
65680
目录名称:
STARLINK-35070
国际标识:
2025-212E
轨道中心:
EARTH
卫星名称:
星链-35070
卫星全名:
星链-35070(STARLINK-35070)
卫星状态:
在轨 (已飞行349 天)
发射日期:
2025-09-21 UTC
国别 :
美国 (US)
星等 :
--
轨道信息
数据来源 国际轨道数据 AOE轨道数据
星历时间 2026-09-05T16:41:30+0800
9小时前
查看轨道信息
2026-08-31T23:00:00+0800
5天前
查看轨道信息
半长轴 6848.871km 6848.787km
偏心率 0.0001152 0.0000924
轨道倾角 53.158° 53.158°
近地点辐角 95.097° 95.296°
升交点赤经 230.302° 252.358°
平近点角 265.016° 48.958°
近地点 469.945km 470.017km
远地点 471.523km 471.283km
周期 94.013分钟 94.011分钟
每日圈数 15.317021 15.317304
详细信息
固有亮度:
5
最大亮度:
2.5
卫星平台:
Starlink V1.0
覆盖范围:
全球
运营商:
太空探索技术公司
运营商所在国:
美国
制造商(研发单位):
太空探索技术公司
制造商所在国:
美国
使用方式:
暂无
卫星简介
Starlink 计划是 SpaceX 推出的全球卫星互联网项目,通过发射低轨道卫星,为全球尤其是偏远地区提供高速、低延迟的互联网服务。自 2019 年起,Starlink 已部署数千颗卫星,旨在缩小全球数字鸿沟,推动互联网普及。该项目还为军事、航空等行业提供通信支持,带来广泛经济效益。
2D轨道图
3D轨道图
轨道高度分析图
轨道倾角分析图
轨道综合分析图
查看轨道综合分析图
交会数据列表
事件ID 空间交会对象 最接近时刻(TCA) 交会距离 交会风险概率(CRP) 交会风险指数(CRI) 操作
CDM_260908-003303-884206-568021
PSLV DEB (38842)
2026-09-08T
00:33:22+0000
1.803 km
极远距离
3.495453E-6 低风险 0.46
CDM_260906-003406-568006-814421
2026-09-06T
00:34:19+0000
2.954 km
极远距离
9.309511E-7 极低风险 0.34